Flag for USA

Past Weather in Passaic, New Jersey, USA — Yesterday and Last 2 Weeks

Now
72 °F

Thundershowers. Partly sunny.


Feels Like: 71 °F
Forecast: 95 / 71 °F
Wind: 7 mph from South

Location: Teterboro Airport

Current Time: Jul 6, 2020 at 6:12:02 pm

Latest Report: Jul 6, 2020 at 5:19 pm


Visibility: 5 mi

Pressure: 30.03 "Hg

Humidity: 84%

Dew Point: 67 °F

Location of PassaicLocation

Past Weather in Passaic — Graph

°F

Passaic Temperature Yesterday

Maximum temperature yesterday: 93 °F (at 1:51 pm)
Minimum temperature yesterday: 71 °F (at 3:51 am)
Average temperature yesterday: 81 °F

High & Low Weather Summary for the Past Weeks

 TemperatureHumidityPressure
High94 °F (Jul 6, 1:51 pm)97% (Jun 28, 6:51 am)30.09 "Hg (Jun 28, 6:51 am)
Low65 °F (Jun 27, 5:51 am)25% (Jul 5, 2:51 pm)29.61 "Hg (Jun 24, 2:51 am)
Average78 °F65%29.84 "Hg
* Reported Jun 21 4:51 pm — Jul 6 4:58 pm, Passaic. Weather by CustomWeather, © 2020

Note: Actual official high and low records may vary slightly from our data, if they occured in-between our weather recording intervals... More about our weather records

Passaic Weather History for the Previous 24 Hours

Scroll right to see more
 ConditionsComfort  
Time TempWeatherWind HumidityBarometerVisibility
4:58 pm
Mon, Jul 6
69 °FStrong thunderstorms. Fog.9 mph93%30.07 "Hg2 mi
4:30 pm71 °FStrong thunderstorms. Fog.18 mph93%30.08 "Hg1 mi
4:10 pm74 °FStrong thunderstorms. Low clouds.15 mph79%30.09 "Hg0 mi
3:26 pm92 °FThunderstorms. Partly sunny.13 mph37%29.96 "Hg10 mi
3:11 pm91 °FThundershowers. Scattered clouds.9 mph38%29.96 "Hg10 mi
2:51 pm92 °FPassing clouds.12 mph37%29.96 "Hg10 mi
1:51 pm94 °FPartly sunny.No wind36%29.97 "Hg10 mi
12:51 pm92 °FSunny.3 mph37%30.00 "Hg10 mi
12:30 pm92 °FSunny.3 mph38%30.01 "Hg10 mi
11:51 am90 °FSunny.No wind39%30.01 "Hg10 mi
10:51 am89 °FSunny.3 mph42%30.01 "Hg10 mi
9:51 am86 °FSunny.5 mph48%30.01 "Hg10 mi
8:51 am83 °FSunny.No wind61%30.01 "Hg10 mi
7:51 am79 °FSunny.No wind67%30.00 "Hg10 mi
6:51 am74 °FSunny.6 mph69%29.98 "Hg10 mi
5:51 am73 °FSunny.3 mph69%29.97 "Hg10 mi
4:51 am74 °FClear.3 mph69%29.96 "Hg10 mi
3:51 am76 °FClear.No wind67%29.94 "Hg10 mi
2:51 am77 °FClear.3 mph64%29.94 "Hg10 mi
1:51 am77 °FClear.No wind77%29.94 "Hg10 mi
12:51 am76 °FClear.No wind77%29.94 "Hg10 mi
11:51 pm
Sun, Jul 5
80 °FClear.No wind64%29.93 "Hg10 mi
10:51 pm81 °FClear.No wind60%29.92 "Hg10 mi
9:51 pm84 °FClear.No wind53%29.92 "Hg10 mi
8:51 pm85 °FClear.3 mph50%29.90 "Hg10 mi
7:51 pm87 °FSunny.6 mph48%29.89 "Hg10 mi
6:51 pm92 °FSunny.6 mph28%29.88 "Hg10 mi
Weather by CustomWeather, © 2020

See weather overview